Location: Astronomy Club of Akron Observatory
(40.9700°N, 81.5606°W)
Time: 07:59:47
(UTC-05:00)

ISS - Visible Passes

Search period start: 14 December 2018 00:00
Search period end: 24 December 2018 00:00
Orbit: 401 x 408 km, 51.6° (Epoch: 15 December)

Date Brightness Start Highest point End Pass type
(mag) Time Alt. Az. Time Alt. Az. Time Alt. Az.
14 Dec -3.2 17:25:42 10° WNW 17:28:55 60° SW 17:32:07 10° SE visible
15 Dec -0.4 18:11:22 10° WSW 18:12:52 13° SW 18:14:22 10° SSW visible
22 Dec -1.9 07:12:56 10° SSW 07:15:58 35° SE 07:19:00 10° ENE visible
23 Dec -0.9 06:21:29 10° S 06:23:52 19° SE 06:26:16 10° E visible
